Probability
0 0 0 0 0 0 0 0 0 0 0 0 0 0 0 0 0 0 0 0 0 0 0 0 0 0 0 0 0 0 0 0 0 0 0 0 0 0 0 0 0 0 0
0 0 0 0 0 0 0 0 0 0 0 0 0 0 0 0 0 0 0 0 0 0 0 0 0 0 0 0 0 0 0 0 0 0 0 0 0 0 0 0 0 0 0
0 0 0 0 0 0 0 0 0 0 0 0 0 0 0 0 0 0 0 0 0 0 0 0 0 0 0 0 0 0 0 0 0 0 0 0 0 0 0 0 0 0 0
0 0 0 0 0 0 0 0 0 0 0 0 0 0 0 0 0 0 0 0 0 0 0 0 0 0 0 0 0 0 0 0 0 0 0 0 0 0 0 0 0 0 0
0 0 0 0 0 0 0 0 0 0 0 0 0 0 0 0 0 0 0 0 0 0 0 0 0 0 0 0 0 0 0 0 0 0 0 0 0 0 0 0 0 0 0
0 0 0 0 0 0 0 0 0 0 0 0 0 0 0 0 0 0 0 0 0 0 0 0 0 0 0 0 0 0 0 0 0 0 0 0 0 0 0 0 0 0 0
0 0 0 0 0 0 0 0 0 0 0 0 0 0 0 0 0 0 0 0 0 0 0 0 0 0 0 0 0 0 0 0 0 0 0 0 0 0 0 0 0 0 0
0 0 0 0 0 0 0 0 0 0 0 0 0 0 0 0 0 0 0 0 0 0 0 0 0 0 0 0 0 0 0 0 0 0 0 0 0 0 0 0 0 0 0
0 0 0 0 0 0 0 0 0 0 0 0 0 0 0 0 0 0 0 0 0 0 0 0 0 0 0 0 0 0 0 0 0 0 0 0 0 0 0 0 0 0 0
0 0 0 0 0 0 0 0 0 0 0 0 0 0 0 0 0 0 0 0 0 0 0 0 0 0 0 0 0 0 0 0 0 0 0 0 0 0 0 0 0 0 0
0 0 0 0 0 0 0 0 0 0 0 0 0 0 0 0 0 0 0 0 0 0 0 0 0 0 0 0 0 0 0 0 0 0 0 0 0 0 0 0 0 0 0
0 0 0 0 0 0 0 0 0 0 0 0 0 0 0 0 0 0 0 0 0 0 0 0 0 0 0 0 0 0 0 0 0 0 0 0 0 0 0 0 0 0 0
0 0 0 0 0 0 0 0 0 0 0 0 0 0 0 0 0 0 0 0 0 0 0 0 0 0 0 0 0 0 0 0 0 0 0 0 0 0 0 0 0 0 0
0 0 0 0 0 0 0 0 0 0 0 0 0 0 0 0 0 0 0 0 0 0 0 0 0 0 0 0 0 0 0 0 0 0 0 0 0 0 0 0 0 0 0
0 0 0 0 0 0 0 0 0 0 0 0 0 0 0 0 0 0 0 0 0 0 0 0 0 0 0 0 0 0 0 0 0 0 0 0 0 0 0 0 0 0 0
0 0 0 0 0 0 0 0 0 0 0 0 0 0 0 0 0 0 0 0 0 0 0 0 0 0 0 0 0 0 0 0 0 0 0 0 0 0 0 0 0 0 0
0 0 0 0 0 0 0 0 0 0 0 0 0 0 0 0 0 0 0 0 0 0 0 0 0 0 0 0 0 0 0 0 0 0 0 0 0 0 0 0 0 0 0
0 0 0 0 0 0 0 0 0 0 0 0 0 0 0 0 0 0 0 0 0 0 0 0 0 0 0 0 0 0 0 0 0 0 0 0 0 0 0 0 0 0 0
0 0 0 0 0 0 0 0 0 0 0 0 0 0 0 0 0 0 0 0 0 0 0 0 0 0 0 0 0 0 0 0 0 0 0 0 0 0 0 0 0 0 0
0 0 0 0 0 0 0 0 0 0 0 0 0 0 0 0 0 0 0 0 0 0 0 0 0 0 0 0 0 0 0 0 0 0 0 0 0 0 0 0 0 0 0
0 0 0 0 0 0 0 0 0 0 0 0 0 0 0 0 0 0 0 0 0 0 0 0 0 0 0 0 0 0 0 0 0 0 0 0 0 0 0 0 0 0 0
0 0 0 0 0 0 0 0 0 0 0 0 0 0 0 0 0 0 0 0 0 0 0 0 0 0 0 0 0 0 0 0 0 0 0 0 0 0 0 0 0 0 0
0 0 0 0 0 0 0 0 0 0 0 0 0 0 0 0 0 0 0 0 0 0 0 0 0 0 0 0 0 0 0 0 0 0 0 0 0 0 0 0 0 0 0
0 0 0 0 0 0 0 0 0 0 0 0 0 0 0 0 0 0 0 0 0 0 0 0 0 0 0 0 0 0 0 0 0 0 0 0 0 0 0 0 0 0 0
0 0 0 0 0 0 0 0 0 0 0 0 0 0 0 0 0 0 0 0 0 0 0 0 0 0 0 0 0 0 0 0 0 0 0 0 0 0 0 0 0 0 0
0 0 0 0 0 0 0 0 0 0 0 0 0 0 0 0 0 0 0 0 0 0 0 0 0 0 0 0 0 0 0 0 0 0 0 0 0 0 0 0 0 0 0
Height
5705 5709 5714 5718 5721 5725 5729 5732 5736 5739 5742 5745 5748 5751 5754 5757 5760 5762 5765 5767 5770 5772 5774 5775 5777 5778 5780 5781 5782 5783 5784 5785 5785 5786 5786 5787 5788 5788 5789 5790 5790 5791 5792
5695 5699 5703 5708 5712 5715 5719 5722 5726 5729 5732 5735 5738 5742 5745 5748 5751 5753 5756 5758 5761 5763 5765 5766 5768 5770 5771 5772 5773 5774 5775 5776 5776 5777 5777 5778 5779 5779 5780 5781 5781 5782 5782
5685 5689 5693 5697 5701 5705 5709 5712 5715 5719 5722 5725 5728 5732 5735 5738 5741 5744 5746 5749 5751 5753 5756 5757 5759 5760 5762 5763 5764 5765 5766 5767 5767 5768 5769 5769 5770 5770 5771 5771 5772 5772 5773
5674 5678 5682 5686 5690 5694 5698 5702 5705 5708 5711 5715 5718 5721 5725 5728 5731 5733 5736 5739 5742 5744 5746 5748 5749 5751 5753 5754 5755 5756 5757 5757 5758 5759 5760 5761 5761 5761 5762 5762 5762 5763 5763
5663 5667 5671 5675 5679 5683 5687 5691 5694 5697 5701 5704 5707 5711 5714 5717 5720 5723 5726 5729 5731 5733 5735 5737 5739 5741 5743 5744 5745 5747 5748 5748 5749 5750 5751 5751 5752 5752 5753 5753 5753 5753 5754
5652 5656 5660 5664 5668 5672 5675 5679 5683 5686 5690 5693 5696 5700 5703 5706 5709 5712 5715 5718 5721 5723 5725 5727 5729 5731 5733 5734 5736 5737 5738 5739 5740 5741 5742 5742 5743 5743 5743 5743 5744 5744 5744
5640 5644 5648 5652 5656 5660 5664 5668 5671 5675 5678 5682 5685 5688 5691 5695 5698 5701 5704 5707 5709 5712 5714 5716 5718 5720 5722 5724 5726 5727 5728 5729 5730 5731 5733 5733 5734 5734 5734 5734 5734 5734 5735
5628 5632 5636 5640 5645 5649 5652 5656 5659 5663 5667 5670 5673 5677 5680 5683 5686 5689 5692 5695 5698 5701 5703 5705 5707 5710 5712 5714 5715 5717 5718 5719 5720 5722 5723 5724 5724 5724 5725 5725 5725 5725 5725
5616 5620 5624 5628 5633 5637 5640 5644 5647 5651 5655 5658 5661 5665 5668 5671 5674 5678 5681 5684 5686 5689 5691 5694 5696 5699 5701 5703 5705 5707 5708 5709 5711 5712 5713 5714 5715 5715 5715 5715 5715 5716 5715
5605 5609 5612 5616 5620 5624 5627 5631 5634 5638 5642 5646 5649 5653 5656 5659 5663 5666 5669 5672 5675 5677 5680 5682 5685 5687 5690 5692 5694 5696 5698 5699 5701 5702 5704 5705 5705 5706 5705 5706 5706 5705 5705
5594 5597 5601 5604 5608 5611 5615 5618 5622 5626 5629 5633 5637 5641 5644 5648 5651 5654 5657 5660 5663 5666 5668 5671 5673 5676 5678 5681 5683 5686 5687 5689 5691 5692 5693 5695 5695 5696 5696 5696 5696 5696 5695
5583 5586 5589 5593 5596 5599 5603 5606 5610 5613 5617 5621 5625 5629 5632 5636 5639 5642 5646 5648 5651 5654 5657 5659 5662 5665 5668 5670 5672 5675 5677 5678 5680 5682 5683 5684 5685 5685 5686 5686 5685 5685 5685
5572 5575 5578 5581 5585 5588 5591 5594 5598 5601 5605 5609 5613 5617 5620 5624 5627 5630 5633 5636 5639 5643 5645 5648 5651 5654 5657 5659 5662 5664 5666 5668 5669 5671 5672 5674 5674 5675 5675 5675 5675 5675 5674
5562 5564 5567 5570 5573 5576 5580 5583 5586 5590 5593 5597 5601 5605 5608 5612 5615 5618 5621 5624 5628 5631 5634 5637 5640 5643 5645 5648 5650 5653 5655 5656 5658 5660 5661 5663 5664 5664 5664 5664 5664 5664 5663
5552 5554 5556 5559 5562 5565 5569 5572 5575 5579 5582 5586 5589 5593 5596 5599 5603 5606 5609 5612 5616 5619 5622 5625 5628 5631 5634 5636 5639 5641 5643 5645 5647 5648 5650 5652 5652 5653 5653 5653 5653 5652 5652
5542 5544 5546 5549 5552 5555 5558 5561 5564 5568 5571 5574 5577 5581 5584 5587 5590 5594 5597 5600 5604 5607 5611 5613 5616 5620 5623 5625 5628 5630 5632 5634 5636 5638 5639 5640 5641 5642 5642 5642 5641 5641 5640
5533 5535 5537 5539 5542 5545 5548 5551 5554 5557 5560 5563 5566 5569 5572 5575 5579 5582 5585 5588 5592 5595 5599 5602 5605 5608 5611 5614 5616 5618 5621 5623 5625 5627 5628 5629 5630 5630 5630 5630 5629 5629 5628
5524 5526 5528 5530 5532 5535 5538 5541 5544 5547 5550 5552 5555 5558 5560 5564 5567 5570 5573 5577 5580 5584 5588 5591 5594 5597 5600 5603 5605 5607 5609 5611 5613 5615 5617 5618 5618 5619 5619 5619 5618 5617 5617
5516 5517 5519 5521 5523 5525 5528 5531 5534 5537 5539 5542 5544 5547 5549 5552 5556 5559 5562 5565 5569 5573 5577 5580 5583 5586 5589 5592 5594 5596 5598 5601 5603 5604 5605 5606 5607 5607 5607 5607 5607 5606 5605
5508 5509 5511 5513 5515 5517 5519 5521 5524 5526 5529 5531 5534 5536 5538 5541 5544 5547 5551 5554 5558 5562 5566 5569 5572 5575 5578 5581 5583 5585 5588 5590 5592 5593 5594 5595 5595 5596 5595 5595 5595 5595 5594
5500 5501 5503 5505 5507 5509 5510 5513 5515 5517 5519 5521 5524 5526 5529 5531 5534 5537 5540 5544 5548 5551 5555 5558 5562 5564 5567 5570 5572 5574 5576 5579 5580 5582 5583 5584 5584 5584 5584 5584 5584 5583 5582
5493 5494 5496 5497 5499 5501 5503 5505 5506 5508 5510 5512 5514 5517 5519 5522 5525 5527 5531 5534 5537 5541 5544 5547 5550 5553 5556 5558 5560 5562 5565 5567 5569 5570 5572 5572 5572 5573 5572 5572 5572 5571 5570
5487 5488 5489 5490 5491 5493 5495 5497 5499 5500 5501 5503 5505 5507 5511 5513 5516 5519 5522 5524 5527 5530 5533 5536 5539 5542 5544 5547 5549 5551 5553 5555 5557 5559 5560 5561 5561 5561 5562 5562 5561 5560 5559
5480 5481 5482 5483 5485 5486 5487 5489 5491 5492 5494 5495 5497 5499 5502 5504 5507 5510 5513 5515 5518 5520 5523 5526 5528 5531 5533 5535 5537 5540 5542 5544 5546 5548 5549 5550 5550 5551 5551 5551 5550 5549 5549
5473 5474 5475 5476 5477 5479 5480 5482 5483 5484 5486 5488 5490 5492 5494 5496 5498 5501 5503 5506 5508 5511 5513 5516 5518 5520 5523 5525 5527 5529 5532 5533 5536 5537 5539 5540 5540 5541 5541 5540 5539 5539 5538
5467 5467 5468 5469 5470 5471 5473 5474 5475 5477 5478 5480 5482 5484 5486 5488 5490 5492 5494 5496 5499 5501 5503 5505 5508 5510 5512 5514 5517 5520 5522 5523 5525 5527 5528 5529 5530 5530 5530 5529 5529 5528 5527
Wind_Speed
43 43 42 42 42 42 42 41 41 41 41 41 41 41 40 40 39 39 38 37 36 36 35 35 36 35 35 35 35 35 35 35 35 35 35 35 36 36 36 36 36 35 35
43 43 42 42 42 42 42 42 42 42 42 41 42 42 41 41 40 40 39 38 38 37 36 36 36 36 36 36 36 36 36 36 36 35 36 35 36 36 37 37 38 37 37
44 44 43 43 42 42 42 42 42 43 42 42 42 43 43 42 42 41 40 40 39 39 38 38 38 38 37 37 36 36 36 36 36 37 37 36 36 37 37 38 38 38 39
44 45 44 44 43 43 43 42 42 43 43 43 43 43 43 43 43 43 42 41 41 41 40 40 39 39 39 37 37 36 36 37 37 37 37 37 36 36 37 37 38 38 39
44 44 44 44 44 44 44 43 43 44 43 43 43 43 43 44 44 44 43 43 42 42 42 41 41 40 40 39 38 38 37 37 37 37 37 37 37 37 37 37 38 39 39
44 44 44 44 44 44 44 44 44 44 44 44 43 43 43 44 45 44 44 43 44 44 43 42 42 41 41 40 40 39 38 38 38 38 38 37 36 37 37 38 38 39 40
43 43 44 44 44 44 45 45 45 45 45 44 44 44 44 45 45 46 45 45 44 44 44 43 43 42 42 41 41 40 38 39 38 38 38 37 37 37 38 38 38 39 39
43 43 44 44 45 44 45 45 46 46 46 45 45 45 45 45 45 46 46 45 45 44 44 44 43 43 42 42 41 40 39 39 39 39 39 38 38 38 39 39 39 39 39
42 43 44 45 45 45 45 46 46 46 47 46 46 46 46 45 45 45 45 45 45 45 44 44 44 43 43 42 41 41 40 40 39 39 39 39 38 38 39 39 40 40 40
42 43 44 44 45 45 45 46 47 47 47 47 46 46 46 45 45 45 45 45 45 45 45 45 44 43 43 43 43 42 41 40 40 40 40 40 40 39 39 39 40 40 40
41 41 42 43 44 44 45 46 46 46 46 47 47 46 46 45 45 45 45 45 45 45 45 45 45 44 43 44 44 42 42 41 41 41 41 41 41 40 40 40 40 41 40
38 39 40 41 42 42 43 44 44 45 45 46 46 46 45 45 44 45 46 45 45 45 45 45 45 44 44 43 43 43 43 42 42 42 42 42 42 41 41 41 41 41 42
36 38 39 40 40 41 41 42 42 43 44 45 46 46 46 45 45 44 45 46 46 45 44 44 44 44 44 43 43 43 43 43 43 43 43 42 42 42 43 43 43 43 43
36 36 37 38 38 39 40 40 41 41 42 43 45 45 46 47 46 45 45 45 45 45 44 44 44 44 44 44 43 43 43 43 43 43 43 42 43 43 43 44 43 43 44
35 37 37 37 37 39 39 39 40 41 41 42 43 44 45 46 46 46 46 46 46 46 45 44 45 44 43 44 43 43 42 42 43 43 43 43 43 43 43 43 43 44 44
33 34 36 37 37 37 38 38 39 40 40 41 41 42 43 44 45 46 46 46 46 46 45 45 45 44 44 44 44 44 43 42 42 41 41 42 43 42 43 43 44 44 45
30 31 33 35 37 37 37 38 38 39 40 40 41 42 43 43 43 44 45 45 45 45 45 44 44 44 44 44 44 44 43 43 42 42 42 42 43 42 42 43 44 44 45
28 29 30 32 34 36 36 37 38 39 39 39 40 41 42 42 42 43 43 44 45 45 45 45 45 44 44 43 43 43 42 42 42 43 43 42 42 43 43 44 44 45 45
28 29 29 30 32 33 34 36 38 39 39 38 39 39 40 41 41 42 42 43 44 44 44 43 43 43 43 43 43 42 41 42 42 42 43 42 42 43 43 43 44 44 44
27 28 28 29 30 31 31 33 35 36 37 37 37 37 38 39 40 40 41 42 42 42 42 42 42 42 42 42 43 43 42 41 42 42 42 42 42 42 42 43 43 43 43
25 26 27 28 29 29 29 29 31 33 33 34 35 36 35 36 36 37 38 39 41 41 42 41 41 41 41 42 42 42 42 41 41 41 41 41 41 42 42 42 42 42 42
24 24 25 26 27 27 27 27 28 30 31 31 33 33 33 34 34 35 36 37 38 40 40 40 40 40 40 41 41 41 41 41 41 40 40 41 40 41 41 41 41 41 41
23 24 24 25 25 26 27 27 27 28 29 30 30 31 33 33 34 34 34 35 36 37 38 39 39 40 40 40 40 40 40 40 40 40 40 39 39 39 39 39 39 39 39
23 23 24 24 24 25 26 27 27 27 28 28 29 30 31 32 33 33 34 34 34 36 37 38 38 39 40 39 39 39 39 39 38 38 38 38 38 37 37 37 38 38 38
22 23 24 24 24 25 26 27 27 27 28 28 28 29 29 29 31 32 33 33 33 35 36 37 37 37 38 37 37 36 36 37 37 37 37 37 37 37 37 37 37 38 38
21 22 23 23 24 25 25 25 26 26 27 27 28 28 29 29 29 30 31 32 32 33 33 34 35 35 36 35 35 34 34 35 36 36 36 36 36 36 36 37 37 37 38
Wind_Direction
238 239 239 239 240 241 241 242 242 243 243 244 243 243 245 246 247 248 249 250 251 252 253 254 255 255 256 257 257 257 258 259 261 261 261 261 260 260 260 260 261 262 262
237 238 239 239 240 240 241 242 242 243 243 244 244 243 244 245 247 248 249 250 250 252 253 254 254 254 256 257 257 258 258 259 260 261 261 261 261 261 261 261 261 262 262
237 238 239 240 241 241 241 241 243 243 244 244 244 244 244 245 246 247 248 248 250 251 253 254 255 254 254 256 257 259 258 259 259 260 261 262 262 262 262 263 263 263 263
238 238 238 239 240 241 241 241 242 243 244 244 245 245 245 245 245 246 247 248 250 251 252 253 254 254 255 255 257 259 259 258 258 259 261 262 264 263 263 264 264 264 264
239 239 239 239 240 240 241 241 242 243 244 245 245 246 245 245 245 246 247 248 249 251 251 252 253 253 254 255 257 257 259 258 258 260 261 262 264 264 264 264 264 265 265
241 241 241 240 241 241 241 242 243 244 245 245 245 246 246 245 246 247 247 248 249 250 251 252 252 252 253 254 255 257 259 259 259 259 260 262 263 264 265 265 265 265 266
243 242 242 242 242 242 242 242 243 244 245 245 245 246 247 247 247 247 248 248 250 250 251 251 251 252 253 253 253 255 258 259 257 258 260 262 263 264 265 266 266 266 267
243 243 243 243 243 242 243 243 243 243 244 245 246 247 247 247 247 248 248 248 248 249 250 251 251 252 252 252 253 255 257 258 257 257 258 260 262 264 265 265 266 266 267
244 243 243 244 243 243 243 244 244 244 243 244 245 246 247 248 248 247 248 248 248 249 249 249 250 251 251 251 253 255 256 256 257 257 258 260 262 264 265 266 267 267 268
244 244 244 244 243 244 244 244 244 244 243 243 244 245 247 247 248 248 248 248 248 248 248 249 250 250 250 250 251 253 254 255 256 257 258 260 262 263 265 267 269 269 269
244 244 244 243 244 244 243 243 244 244 244 243 243 244 246 247 248 248 247 248 248 248 249 248 249 249 249 249 249 251 253 254 255 256 258 260 262 264 266 267 269 270 270
245 243 243 243 243 244 244 244 244 245 244 243 243 244 245 247 248 248 248 247 247 248 248 248 248 248 248 250 250 251 253 254 255 256 258 260 262 264 266 267 269 270 271
244 244 244 244 243 243 243 244 244 244 244 243 244 244 245 246 247 247 248 247 247 247 247 247 247 247 248 250 251 252 254 254 255 256 257 259 262 264 266 267 269 270 271
244 244 245 244 243 243 243 243 243 243 243 243 244 245 245 245 246 247 247 247 247 247 247 247 247 248 249 250 251 253 254 254 255 256 257 259 262 264 266 268 269 270 271
246 245 245 245 245 244 243 242 243 243 243 244 245 245 245 245 246 247 248 247 246 246 246 246 247 247 248 249 250 252 254 255 255 255 257 260 264 266 267 268 269 270 272
248 247 246 245 245 245 243 242 242 243 243 244 245 246 246 246 246 246 246 247 246 245 246 247 247 248 249 249 250 252 254 255 256 257 258 261 263 265 267 268 270 271 272
248 247 246 245 244 243 243 244 244 243 243 245 246 247 246 246 246 245 245 245 244 244 246 247 247 248 249 250 251 253 254 256 257 258 259 262 264 265 267 269 270 272 274
248 247 247 246 245 243 243 244 243 243 244 245 246 247 246 245 245 245 245 245 244 244 245 247 247 247 248 249 251 253 254 256 258 260 261 263 264 266 268 269 270 272 274
252 249 247 248 247 245 245 245 244 244 245 246 247 247 247 246 247 247 246 245 245 244 245 246 246 246 247 249 251 252 253 256 259 261 263 264 265 267 268 269 271 273 275
253 249 248 249 248 247 246 246 246 246 245 245 245 246 247 247 247 246 245 245 244 243 245 246 246 247 248 250 252 252 255 257 258 261 263 264 266 267 269 270 272 274 275
253 250 249 250 248 247 247 246 247 246 245 244 243 244 245 246 245 244 243 244 245 245 245 246 247 248 249 251 253 254 256 258 259 261 263 264 266 268 269 270 271 273 275
252 249 250 251 249 247 246 245 246 245 245 244 244 242 241 242 242 242 243 243 245 245 245 246 246 247 250 252 253 254 256 258 259 260 263 264 265 267 268 269 271 273 274
250 249 250 250 249 249 247 245 245 246 245 244 243 241 240 241 242 243 244 244 244 245 245 246 247 248 251 252 253 255 256 258 259 260 262 263 264 265 267 269 270 271 272
253 251 248 249 250 248 247 246 246 246 246 246 244 242 240 241 242 243 243 244 243 245 246 247 247 249 250 250 251 252 254 256 257 259 261 262 264 265 267 269 270 272 273
254 254 251 249 249 249 248 247 248 247 246 245 243 243 243 242 243 244 244 244 244 246 247 247 247 248 248 250 251 252 254 255 256 258 260 263 264 266 268 270 272 274 274
257 255 252 251 251 251 250 249 248 247 246 244 243 244 245 245 245 245 246 246 246 246 247 248 247 248 249 250 252 253 256 256 257 259 260 262 264 266 269 271 274 275 276